User: anonymous   Login
Location: Caltech
(34.1382°N, 118.1253°W)
Time: 17:38:59
(UTC-08:00)
Language:

Cosmos 1758 Rocket - Orbit

View from above orbital plane
View from above orbital plane
View from above satellite
View from above satellite

Ground track
Ground track

The orbit data is extracted from the following two-line orbital elements,

1 16792U 86046B   15065.25746696  .00000514  00000-0  60202-4 0  9995
2 16792 082.4798 266.9461 0024966 155.3912 324.0263 14.82832233551289
Epoch (UTC): 06 March 2015 06:10:45
Eccentricity: 0.0024966
inclination: 82.4798°
perigee height: 603 km
apogee height: 638 km
right ascension of ascending node: 266.9461°
argument of perigee: 155.3912°
revolutions per day: 14.82832233
mean anomaly at epoch: 324.0263°
orbit number at epoch: 55128

The dashed part of the orbit path shows where the satellite is in the earth's shadow,  

DLR